H1 CPF 2 NER 2025 12 9 9 343 01 glonass140 H2 1903001 9140 44299 2025 12 9 0 0 0 2025 12 12 23 45 0 900 1 1 0 0 0 1 H9 10 0 61018 0.00000 0 -16192326.117 15029784.654 12758947.274 10 0 61018 900.00000 0 -15259431.348 13571347.549 15295462.828 10 0 61018 1800.00000 0 -14308958.297 11783755.262 17535099.020 10 0 61018 2700.00000 0 -13396764.760 9695485.016 19434482.071 10 0 61018 3600.00000 0 -12573612.607 7346544.398 20956855.574 10 0 61018 4500.00000 0 -11882978.056 4787049.641 22072782.697 10 0 61018 5400.00000 0 -11359187.678 2075387.727 22760706.369 10 0 61018 6300.00000 0 -11025957.465 -723961.978 23007357.738 10 0 61018 7200.00000 0 -10895395.273 -3542857.061 22808005.916 10 0 61018 8100.00000 0 -10967507.625 -6312072.805 22166544.975 10 0 61018 9000.00000 0 -11230230.926 -8963928.714 21095416.874 10 0 61018 9900.00000 0 -11659985.419 -11434853.378 19615371.911 10 0 61018 10800.00000 0 -12222728.642 -13667782.781 17755071.047 10 0 61018 11700.00000 0 -12875464.419 -15614293.910 15550537.179 10 0 61018 12600.00000 0 -13568144.526 -17236386.167 13044465.193 10 0 61018 13500.00000 0 -14245883.671 -18507837.488 10285403.214 10 0 61018 14400.00000 0 -14851395.216 -19415079.349 7326819.933 10 0 61018 15300.00000 0 -15327545.524 -19957554.641 4226075.248 10 0 61018 16200.00000 0 -15619919.521 -20147543.719 1043313.519 10 0 61018 17100.00000 0 -15679289.169 -20009466.086 -2159699.597 10 0 61018 18000.00000 0 -15463880.269 -19578687.042 -5320774.287 10 0 61018 18900.00000 0 -14941341.116 -18899879.528 -8378504.421 10 0 61018 19800.00000 0 -14090328.803 -18025010.085 -11273462.416 10 0 61018 20700.00000 0 -12901644.824 -17011033.901 -13949357.462 10 0 61018 21600.00000 0 -11378870.516 -15917396.202 -16354134.188 10 0 61018 22500.00000 0 -9538473.795 -14803445.533 -18440989.947 10 0 61018 23400.00000 0 -7409380.936 -13725868.257 -20169290.510 10 0 61018 24300.00000 0 -5032029.618 -12736252.712 -21505365.995 10 0 61018 25200.00000 0 -2456941.270 -11878885.943 -22423171.321 10 0 61018 26100.00000 0 257128.949 -11188876.171 -22904798.042 10 0 61018 27000.00000 0 3045388.466 -10690680.272 -22940827.454 10 0 61018 27900.00000 0 5839459.252 -10397098.494 -22530517.890 10 0 61018 28800.00000 0 8569983.855 -10308778.838 -21681822.318 10 0 61018 29700.00000 0 11169277.462 -10414251.966 -20411235.695 10 0 61018 30600.00000 0 13573915.818 -10690495.085 -18743474.763 10 0 61018 31500.00000 0 15727151.360 -11104000.746 -16710996.334 10 0 61018 32400.00000 0 17581057.051 -11612305.097 -14353363.305 10 0 61018 33300.00000 0 19098308.727 -12165910.531 -11716470.713 10 0 61018 34200.00000 0 20253531.891 -12710520.814 -8851647.114 10 0 61018 35100.00000 0 21034157.298 -13189493.432 -5814649.115 10 0 61018 36000.00000 0 21440750.405 -13546404.574 -2664569.201 10 0 61018 36900.00000 0 21486802.024 -13727617.363 537321.161 10 0 61018 37800.00000 0 21197990.391 -13684743.841 3728769.795 10 0 61018 38700.00000 0 20610947.203 -13376895.868 6847759.385 10 0 61018 39600.00000 0 19771581.106 -12772629.163 9833715.923 10 0 61018 40500.00000 0 18733030.651 -11851497.984 12628686.032 10 0 61018 41400.00000 0 17553334.121 -10605154.525 15178460.094 10 0 61018 42300.00000 0 16292915.161 -9037946.580 17433619.378 10 0 61018 43200.00000 0 15011990.470 -7166988.106 19350487.325 10 0 61018 44100.00000 0 13768008.474 -5021699.523 20891967.275 10 0 61018 45000.00000 0 12613226.181 -2642836.595 22028251.328 10 0 61018 45900.00000 0 11592525.077 -81047.895 22737387.747 10 0 61018 46800.00000 0 10741556.572 2604979.840 23005696.990 10 0 61018 47700.00000 0 10085293.542 5350712.287 22828029.325 10 0 61018 48600.00000 0 9637047.420 8088204.290 22207859.771 10 0 61018 49500.00000 0 9397990.946 10748683.027 21157218.985 10 0 61018 50400.00000 0 9357205.738 13265171.832 19696461.518 10 0 61018 51300.00000 0 9492252.152 15575047.294 17853875.642 10 0 61018 52200.00000 0 9770237.302 17622424.788 15665141.717 10 0 61018 53100.00000 0 10149336.460 19360274.500 13172648.795 10 0 61018 54000.00000 0 10580704.134 20752180.807 10424681.737 10 0 61018 54900.00000 0 11010694.795 21773672.423 7474493.631 10 0 61018 55800.00000 0 11383300.031 22413068.146 4379280.657 10 0 61018 56700.00000 0 11642699.580 22671803.072 1199078.582 10 0 61018 57600.00000 0 11735818.569 22564221.608 -2004398.196 10 0 61018 58500.00000 0 11614782.670 22116845.851 -5168952.655 10 0 61018 59400.00000 0 11239166.808 21367149.913 -8233112.998 10 0 61018 60300.00000 0 10577941.472 20361891.546 -11137328.649 10 0 61018 61200.00000 0 9611033.147 19155071.151 -13825130.746 10 0 61018 62100.00000 0 8330431.507 17805604.025 -16244234.163 10 0 61018 63000.00000 0 6740794.928 16374803.855 -18347559.175 10 0 61018 63900.00000 0 4859527.052 14923783.486 -20094152.475 10 0 61018 64800.00000 0 2716319.291 13510882.476 -21449989.267 10 0 61018 65700.00000 0 352176.698 12189229.779 -22388640.587 10 0 61018 66600.00000 0 -2182033.616 11004544.226 -22891792.583 10 0 61018 67500.00000 0 -4827452.236 9993265.290 -22949607.515 10 0 61018 68400.00000 0 -7519438.453 9181092.746 -22560919.202 10 0 61018 69300.00000 0 -10190031.144 8581996.475 -21733258.942 10 0 61018 70200.00000 0 -12770557.528 8197737.845 -20482711.140 10 0 61018 71100.00000 0 -15194281.464 8017922.392 -18833601.216 10 0 61018 72000.00000 0 -17398981.034 8020581.115 -16818021.660 10 0 61018 72900.00000 0 -19329347.999 8173255.206 -14475205.299 10 0 61018 73800.00000 0 -20939109.068 8434537.662 -11850757.949 10 0 61018 74700.00000 0 -22192780.437 8756005.795 -8995765.568 10 0 61018 75600.00000 0 -23066982.536 9084461.922 -5965793.608 10 0 61018 76500.00000 0 -23551260.439 9364386.432 -2819798.595 10 0 61018 77400.00000 0 -23648376.336 9540498.334 381026.148 10 0 61018 78300.00000 0 -23374062.822 9560313.897 3574447.362 10 0 61018 79200.00000 0 -22756248.637 9376594.180 6698407.203 10 0 61018 80100.00000 0 -21833790.769 8949577.137 9692232.683 10 0 61018 81000.00000 0 -20654767.588 8248899.387 12497815.140 10 0 61018 81900.00000 0 -19274406.009 7255126.043 15060736.594 10 0 61018 82800.00000 0 -17752730.770 5960823.843 17331321.115 10 0 61018 83700.00000 0 -16152035.158 4371132.167 19265591.267 10 0 61018 84600.00000 0 -14534279.478 2503807.705 20826111.760 10 0 61018 85500.00000 0 -12958526.089 388740.560 21982704.939 10 0 61019 0.00000 0 -11478517.842 -1933038.281 22713025.290 10 0 61019 900.00000 0 -10140499.453 -4410818.688 23002983.276 10 0 61019 1800.00000 0 -8981373.609 -6986079.273 22847010.382 10 0 61019 2700.00000 0 -8027264.861 -9594688.961 22248162.340 10 0 61019 3600.00000 0 -7292551.975 -12169349.096 21218057.898 10 0 61019 4500.00000 0 -6779407.203 -14642177.207 19776654.881 10 0 61019 5400.00000 0 -6477860.882 -16947326.376 17951867.559 10 0 61019 6300.00000 0 -6366387.986 -19023532.707 15779032.134 10 0 61019 7200.00000 0 -6412991.621 -20816486.122 13300229.921 10 0 61019 8100.00000 0 -6576737.852 -22280926.697 10563480.388 10 0 61019 9000.00000 0 -6809677.356 -23382379.802 7621818.712 10 0 61019 9900.00000 0 -7059073.134 -24098457.950 4532274.912 10 0 61019 10800.00000 0 -7269840.460 -24419674.985 1354773.624 10 0 61019 11700.00000 0 -7387096.082 -24349738.406 -1849024.609 10 0 61019 12600.00000 0 -7358708.756 -23905307.237 -5016918.213 10 0 61019 13500.00000 0 -7137742.827 -23115225.269 -8087372.417 10 0 61019 14400.00000 0 -6684690.770 -22019261.457 -11000716.364 10 0 61019 15300.00000 0 -5969399.221 -20666410.104 -13700305.834 10 0 61019 16200.00000 0 -4972605.802 -19112821.987 -16133628.560 10 0 61019 17100.00000 0 -3687020.288 -17419453.233 -18253330.190 10 0 61019 18000.00000 0 -2117902.778 -15649530.668 -20018140.536 10 0 61019 18900.00000 0 -283112.746 -13865940.080 -21393681.741 10 0 61019 19800.00000 0 1787374.959 -12128647.074 -22353142.380 10 0 61019 20700.00000 0 4052468.561 -10492258.766 -22877804.160 10 0 61019 21600.00000 0 6461432.025 -9003828.579 -22957410.767 10 0 61019 22500.00000 0 8955771.700 -7700996.077 -22590371.507 10 0 61019 23400.00000 0 11471459.143 -6610539.654 -21783795.549 10 0 61019 24300.00000 0 13941398.122 -5747402.423 -20553355.877 10 0 61019 25200.00000 0 16298033.300 -5114231.681 -18922985.323 10 0 61019 26100.00000 0 18475991.949 -4701450.603 -16924410.390 10 0 61019 27000.00000 0 20414648.431 -4487858.293 -14596531.779 10 0 61019 27900.00000 0 22060504.258 -4441731.911 -11984663.630 10 0 61019 28800.00000 0 23369284.094 -4522383.237 -9139646.446 10 0 61019 29700.00000 0 24307660.005 -4682102.734 -6116851.319 10 0 61019 30600.00000 0 24854531.879 -4868407.626 -2975095.329 10 0 61019 31500.00000 0 25001810.723 -5026497.627 224510.001 10 0 61019 32400.00000 0 24754672.623 -5101813.150 3419754.021 10 0 61019 33300.00000 0 24131273.623 -5042586.622 6548541.960 10 0 61019 34200.00000 0 23161938.551 -4802277.984 9550105.210 10 0 61019 35100.00000 0 21887859.060 -4341790.650 12366182.842 10 0 61019 36000.00000 0 20359356.677 -3631373.746 14942151.108 10 0 61019 36900.00000 0 18633784.739 -2652129.992 17228079.012 10 0 61019 37800.00000 0 16773157.888 -1397065.465 19179689.876 10 0 61019 38700.00000 0 14841608.730 128363.140 20759210.938 10 0 61019 39600.00000 0 12902778.007 1906226.979 21936095.468 10 0 61019 40500.00000 0 11017246.838 3906630.556 22687604.489 10 0 61019 41400.00000 0 9240117.301 6088723.739 22999237.965 10 0 61019 42300.00000 0 7618841.141 8402178.854 22865008.102 10 0 61019 43200.00000 0 6191385.686 10789072.364 22287550.247 10 0 61019 44100.00000 0 4984811.996 13186094.076 21278069.730 10 0 61019 45000.00000 0 4014323.098 15526993.272 19856125.780 10 0 61019 45900.00000 0 3282820.754 17745161.450 18049256.477 10 0 61019 46800.00000 0 2780988.205 19776245.558 15892451.409 10 0 61019 47700.00000 0 2487894.675 21560684.069 13427481.497 10 0 61019 48600.00000 0 2372095.734 23046061.147 10702098.006 10 0 61019 49500.00000 0 2393183.078 24189181.342 7769115.296 10 0 61019 50400.00000 0 2503718.377 24957778.420 4685394.267 10 0 61019 51300.00000 0 2651469.708 25331786.871 1510745.469 10 0 61019 52200.00000 0 2781856.113 25304122.574 -1693227.304 10 0 61019 53100.00000 0 2840496.877 24880939.428 -4864320.685 10 0 61019 54000.00000 0 2775757.352 24081350.589 -7940939.481 10 0 61019 54900.00000 0 2541183.096 22936625.386 -10863294.848 10 0 61019 55800.00000 0 2097718.466 21488895.041 -13574569.195 10 0 61019 56700.00000 0 1415614.767 19789421.000 -16022024.767 10 0 61019 57600.00000 0 475945.952 17896498.166 -18158033.923 10 0 61019 58500.00000 0 -728333.637 15873080.701 -19941010.635 10 0 61019 59400.00000 0 -2191835.767 13784229.784 -21336224.737 10 0 61019 60300.00000 0 -3896714.091 11694490.127 -22316482.859 10 0 61019 61200.00000 0 -5813171.940 9665305.081 -22862662.512 10 0 61019 62100.00000 0 -7900482.409 7752578.406 -22964088.782 10 0 61019 63000.00000 0 -10108479.474 6004484.583 -22618746.120 10 0 61019 63900.00000 0 -12379458.863 4459619.049 -21833320.875 10 0 61019 64800.00000 0 -14650410.089 3145565.377 -20623073.529 10 0 61019 65700.00000 0 -16855486.963 2077938.812 -19011542.855 10 0 61019 66600.00000 0 -18928613.586 1259945.526 -17030087.537 10 0 61019 67500.00000 0 -20806116.911 682475.128 -14717274.008 10 0 61019 68400.00000 0 -22429275.662 324721.372 -12118122.348 10 0 61019 69300.00000 0 -23746678.617 155303.678 -9283225.075 10 0 61019 70200.00000 0 -24716293.258 133840.731 -6267756.298 10 0 61019 71100.00000 0 -25307157.903 212908.260 -3130390.997 10 0 61019 72000.00000 0 -25500626.332 340296.754 67843.771 10 0 61019 72900.00000 0 -25291112.938 461472.191 3264762.614 10 0 61019 73800.00000 0 -24686307.612 522134.351 6398236.447 10 0 61019 74700.00000 0 -23706852.065 470763.319 9407403.618 10 0 61019 75600.00000 0 -22385492.064 261045.584 12233853.415 10 0 61019 76500.00000 0 -20765742.103 -145923.492 14822758.669 10 0 61019 77400.00000 0 -18900119.366 -779754.238 17123935.452 10 0 61019 78300.00000 0 -16848021.660 -1659274.024 19092809.695 10 0 61019 79200.00000 0 -14673338.438 -2791498.217 20691272.663 10 0 61019 80100.00000 0 -12441894.801 -4171104.114 21888409.630 10 0 61019 81000.00000 0 -10218834.706 -5780430.138 22661088.752 10 0 61019 81900.00000 0 -8066051.673 -7590000.744 22994399.819 10 0 61019 82800.00000 0 -6039772.869 -9559555.680 22881935.430 10 0 61019 83700.00000 0 -4188395.745 -11639541.499 22325909.905 10 0 61019 84600.00000 0 -2550665.689 -13773004.199 21337114.164 10 0 61019 85500.00000 0 -1154269.048 -15897805.343 19934707.524 10 0 61020 0.00000 0 -14898.698 -17949070.446 18145850.453 10 0 61020 900.00000 0 864170.714 -19861770.004 16005183.759 10 0 61020 1800.00000 0 1491979.743 -21573323.975 13554166.044 10 0 61020 2700.00000 0 1889260.455 -23026125.636 10840278.124 10 0 61020 3600.00000 0 2087317.237 -24169877.308 7916111.162 10 0 61020 4500.00000 0 2126460.115 -24963641.686 4838354.456 10 0 61020 5400.00000 0 2054056.617 -25377522.697 1666701.951 10 0 61020 6300.00000 0 1922284.465 -25393905.116 -1537301.836 10 0 61020 7200.00000 0 1785680.162 -25008200.327 -4711454.258 10 0 61020 8100.00000 0 1698587.344 -24229066.169 -7794102.184 10 0 61020 9000.00000 0 1712613.305 -23078090.746 -10725341.221 10 0 61020 9900.00000 0 1874201.917 -21588952.616 -13448182.773 10 0 61020 10800.00000 0 2222426.526 -19806091.769 -15909665.869 10 0 61020 11700.00000 0 2787097.235 -17782946.429 -18061891.684 10 0 61020 12600.00000 0 3587263.820 -15579829.047 -19862960.228 10 0 61020 13500.00000 0 4630178.905 -13261529.996 -21277790.624 10 0 61020 14400.00000 0 5910766.639 -10894748.916 -22278808.786 10 0 61020 15300.00000 0 7411620.802 -8545460.920 -22846488.876 10 0 61020 16200.00000 0 9103533.931 -6276327.494 -22969737.832 10 0 61020 17100.00000 0 10946536.692 -4144260.026 -22646115.296 10 0 61020 18000.00000 0 12891405.063 -2198237.450 -21881884.473 10 0 61020 18900.00000 0 14881573.180 -477468.793 -20691892.668 10 0 61020 19800.00000 0 16855372.387 990023.173 -19099283.573 10 0 61020 20700.00000 0 18748503.068 2188338.582 -17135046.691 10 0 61020 21600.00000 0 20496635.844 3114119.189 -14837412.454 10 0 61020 22500.00000 0 22038032.989 3776432.716 -12251104.775 10 0 61020 23400.00000 0 23316079.814 4196129.015 -9426465.700 10 0 61020 24300.00000 0 24281619.456 4404696.676 -6418469.500 10 0 61020 25200.00000 0 24894992.681 4442669.873 -3285645.906 10 0 61020 26100.00000 0 25127696.742 4357654.334 -88934.148 10 0 61020 27000.00000 0 24963593.505 4202057.477 3109509.099 10 0 61020 27900.00000 0 24399616.246 4030620.165 6247523.873 10 0 61020 28800.00000 0 23445945.732 3897855.804 9264158.760 10 0 61020 29700.00000 0 22125648.781 3855506.135 12100856.303 10 0 61020 30600.00000 0 20473795.110 3950122.054 14702588.627 10 0 61020 31500.00000 0 18536090.164 4220872.128 17018921.219 10 0 61020 32400.00000 0 16367081.739 4697671.519 19004984.564 10 0 61020 33300.00000 0 14028015.711 5399710.187 20622335.488 10 0 61020 34200.00000 0 11584430.444 6334442.301 21839692.393 10 0 61020 35100.00000 0 9103589.852 7497079.256 22633531.253 10 0 61020 36000.00000 0 6651861.254 8870607.700 22988531.937 10 0 61020 36900.00000 0 4292146.086 10426332.116 22897867.223 10 0 61020 37800.00000 0 2081468.906 12124919.820 22363329.724 10 0 61020 38700.00000 0 68823.343 13917905.534 21395294.784 10 0 61020 39600.00000 0 -1706637.050 15749593.722 20012520.193 10 0 61020 40500.00000 0 -3216989.408 17559280.455 18241786.412 10 0 61020 41400.00000 0 -4446457.179 19283703.241 16117383.720 10 0 61020 42300.00000 0 -5391813.822 20859617.668 13680455.440 10 0 61020 43200.00000 0 -6062258.748 22226394.108 10978209.062 10 0 61020 44100.00000 0 -6478771.451 23328526.580 8063009.539 10 0 61020 45000.00000 0 -6672971.473 24117949.068 4991371.514 10 0 61020 45900.00000 0 -6685532.440 24556062.218 1822869.267 10 0 61020 46800.00000 0 -6564217.240 24615385.054 -1381014.968 10 0 61020 47700.00000 0 -6361617.401 24280761.682 -4558082.147 10 0 61020 48600.00000 0 -6132692.385 23550071.437 -7646623.913 10 0 61020 49500.00000 0 -5932213.184 22434411.562 -10586622.799 10 0 61020 50400.00000 0 -5812218.793 20957743.622 -13320921.398 10 0 61020 51300.00000 0 -5819593.862 19156017.386 -15796337.402 10 0 61020 52200.00000 0 -5993870.749 17075807.886 -17964702.370 10 0 61020 53100.00000 0 -6365349.931 14772521.872 -19783803.596 10 0 61020 54000.00000 0 -6953619.276 12308248.023 -21218210.441 10 0 61020 54900.00000 0 -7766535.915 9749340.175 -22239968.784 10 0 61020 55800.00000 0 -8799714.919 7163834.133 -22829149.834 10 0 61020 56700.00000 0 -10036547.640 4618805.508 -22974242.485 10 0 61020 57600.00000 0 -11448750.166 2177778.487 -22672381.366 10 0 61020 58500.00000 0 -12997419.959 -101706.677 -21929405.974 10 0 61020 59400.00000 0 -14634557.236 -2170266.385 -20759749.487 10 0 61020 60300.00000 0 -16304987.918 -3988496.453 -19186159.180 10 0 61020 61200.00000 0 -17948607.844 -5528369.407 -17239253.647 10 0 61020 62100.00000 0 -19502854.194 -6774148.745 -14956925.264 10 0 61020 63000.00000 0 -20905300.239 -7722782.926 -12383599.433 10 0 61020 63900.00000 0 -22096264.065 -8383763.820 -9569365.171 10 0 61020 64800.00000 0 -23021321.174 -8778457.059 -6568994.214 10 0 61020 65700.00000 0 -23633614.794 -8938934.065 -3440868.249 10 0 61020 66600.00000 0 -23895866.192 -8906356.699 -245835.831 10 0 61020 67500.00000 0 -23782000.078 -8728984.433 2953977.962 10 0 61020 68400.00000 0 -23278316.517 -8459889.849 6096385.160 10 0 61020 69300.00000 0 -22384160.074 -8154480.505 9120347.429 10 0 61020 70200.00000 0 -21112058.320 -7867933.118 11967163.311 10 0 61020 71100.00000 0 -19487324.195 -7652649.435 14581606.821 10 0 61020 72000.00000 0 -17547139.381 -7555841.809 16912995.208 10 0 61020 72900.00000 0 -15339157.416 -7617350.630 18916165.546 10 0 61020 73800.00000 0 -12919685.199 -7867785.606 20552341.852 10 0 61020 74700.00000 0 -10351518.772 -8327068.946 21789876.831 10 0 61020 75600.00000 0 -7701523.274 -9003441.445 22604854.972 10 0 61020 76500.00000 0 -5038057.062 -9892972.980 22981546.426 10 0 61020 77400.00000 0 -2428346.125 -10979597.913 22912703.896 10 0 61020 78300.00000 0 64083.483 -12235674.063 22399697.609 10 0 61020 79200.00000 0 2381810.100 -13623042.328 21452486.288 10 0 61020 80100.00000 0 4475659.542 -15094543.326 20089424.827 10 0 61020 81000.00000 0 6306499.428 -16595928.544 18336912.207 10 0 61020 81900.00000 0 7846611.650 -18068087.103 16228885.939 10 0 61020 82800.00000 0 9080587.159 -19449496.019 13806172.062 10 0 61020 83700.00000 0 10005706.882 -20678792.310 11115702.367 10 0 61020 84600.00000 0 10631793.740 -21697359.941 8209613.049 10 0 61020 85500.00000 0 10980542.592 -22451823.518 5144241.383 10 0 61021 0.00000 0 11084356.694 -22896344.148 1979039.475 10 0 61021 900.00000 0 10984739.926 -22994620.910 -1224576.106 10 0 61021 1800.00000 0 10730312.658 -22721512.638 -4404412.423 10 0 61021 2700.00000 0 10374535.344 -22064211.708 -7498708.578 10 0 61021 3600.00000 0 9973236.072 -21022918.590 -10447336.581 10 0 61021 4500.00000 0 9582047.012 -19610987.850 -13192972.610 10 0 61021 5400.00000 0 9253858.596 -17854538.001 -15682215.223 10 0 61021 6300.00000 0 9036399.672 -15791540.275 -17866628.328 10 0 61021 7200.00000 0 8970046.648 -13470423.292 -19703688.214 10 0 61021 8100.00000 0 9085955.007 -10948250.960 -21157615.874 10 0 61021 9000.00000 0 9404593.021 -8288548.893 -22200078.190 10 0 61021 9900.00000 0 9934740.482 -5558869.403 -22810744.088 10 0 61021 10800.00000 0 10672995.656 -2828196.071 -22977684.692 10 0 61021 11700.00000 0 11603812.207 -164295.634 -22697609.526 10 0 61021 12600.00000 0 12700065.420 2368872.844 -21975933.931 10 0 61021 13500.00000 0 13924124.672 4713583.953 -20826676.184 10 0 61021 14400.00000 0 15229387.644 6820506.374 -19272186.061 10 0 61021 15300.00000 0 16562212.091 8650508.162 -17342709.857 10 0 61021 16200.00000 0 17864164.055 10176032.169 -15075800.191 10 0 61021 17100.00000 0 19074487.812 11381984.995 -12515581.939 10 0 61021 18000.00000 0 20132693.218 12266103.288 -9711888.747 10 0 61021 18900.00000 0 20981151.015 12838783.375 -6719287.169 10 0 61021 19800.00000 0 21567586.148 13122382.887 -3596007.931 10 0 61021 20700.00000 0 21847363.388 13150025.437 -402805.804 10 0 61021 21600.00000 0 21785468.409 12963960.475 2798228.933 10 0 61021 22500.00000 0 21358100.395 12613549.205 5944883.511 10 0 61021 23400.00000 0 20553808.874 12152963.229 8976035.766 10 0 61021 24300.00000 0 19374126.846 11638694.422 11832843.148 10 0 61021 25200.00000 0 17833673.681 11126982.311 14459884.198 10 0 61021 26100.00000 0 15959723.632 10671268.213 16806230.274 10 0 61021 27000.00000 0 13791258.208 10319783.897 18826427.053 10 0 61021 27900.00000 0 11377542.133 10113376.338 20481367.415 10 0 61021 28800.00000 0 8776282.246 10083659.893 21739039.686 10 0 61021 29700.00000 0 6051445.734 10251573.102 22575137.802 10 0 61021 30600.00000 0 3270827.799 10626400.236 22973522.719 10 0 61021 31500.00000 0 503468.918 11205298.219 22926527.146 10 0 61021 32400.00000 0 -2182972.333 11973348.472 22435098.534 10 0 61021 33300.00000 0 -4724783.353 12904131.524 21508778.098 10 0 61021 34200.00000 0 -7064593.619 13960800.604 20165516.450 10 0 61021 35100.00000 0 -9153505.009 15097609.778 18431329.241 10 0 61021 36000.00000 0 -10952869.358 16261833.418 16339798.947 10 0 61021 36900.00000 0 -12435640.664 17395997.385 13931431.727 10 0 61021 37800.00000 0 -13587246.760 18440329.261 11252880.844 10 0 61021 38700.00000 0 -14405945.026 19335325.492 8356050.753 10 0 61021 39600.00000 0 -14902647.895 20024328.157 5297098.347 10 0 61021 40500.00000 0 -15100225.959 20456003.169 2135349.971 10 0 61021 41400.00000 0 -15032318.266 20586615.521 -1067845.278 10 0 61021 42300.00000 0 -14741700.038 20382005.223 -4250303.967 10 0 61021 43200.00000 0 -14278276.785 19819179.858 -7350215.361 10 0 61021 44100.00000 0 -13696789.581 18887455.538 -10307343.468 10 0 61021 45000.00000 0 -13054328.649 17589096.821 -13064200.353 10 0 61021 45900.00000 0 -12407760.592 15939427.207 -15567167.473 10 0 61021 46800.00000 0 -11811178.363 13966403.963 -17767542.838 10 0 61021 47700.00000 0 -11313482.198 11709673.660 -19622493.172 10 0 61021 48600.00000 0 -10956194.237 9219146.564 -21095892.236 10 0 61021 49500.00000 0 -10771599.692 6553148.302 -22159028.745 10 0 61021 50400.00000 0 -10781293.643 3776224.977 -22791169.873 10 0 61021 51300.00000 0 -10995195.388 956692.495 -22979969.207 10 0 61021 52200.00000 0 -11411072.544 -1835968.447 -22721711.069 10 0 61021 53100.00000 0 -12014595.508 -4533763.677 -22021386.208 10 0 61021 54000.00000 0 -12779920.520 -7072773.157 -20892597.212 10 0 61021 54900.00000 0 -13670777.097 -9395567.527 -19357295.182 10 0 61021 55800.00000 0 -14642014.291 -11453353.231 -17445352.598 10 0 61021 56700.00000 0 -15641540.595 -13207757.250 -15193980.464 10 0 61021 57600.00000 0 -16612575.579 -14632177.551 -12647000.998 10 0 61021 58500.00000 0 -17496117.911 -15712643.600 -9853990.116 10 0 61021 59400.00000 0 -18233525.072 -16448151.945 -6869306.669 10 0 61021 60300.00000 0 -18769095.262 -16850464.119 -3751027.787 10 0 61021 61200.00000 0 -19052541.752 -16943376.827 -559811.736 10 0 61021 62100.00000 0 -19041254.534 -16761496.774 2642288.781 10 0 61021 63000.00000 0 -18702253.242 -16348573.461 5793039.009 10 0 61021 63900.00000 0 -18013748.484 -15755461.889 8831235.776 10 0 61021 64800.00000 0 -16966245.480 -15037802.559 11697898.219 10 0 61021 65700.00000 0 -15563143.426 -14253517.868 14337412.090 10 0 61021 66600.00000 0 -13820805.312 -13460231.322 16698605.358 10 0 61021 67500.00000 0 -11768095.281 -12712718.791 18735734.537 10 0 61021 68400.00000 0 -9445402.798 -12060499.179 20409363.273 10 0 61021 69300.00000 0 -6903194.215 -11545665.586 21687116.999 10 0 61021 70200.00000 0 -4200151.741 -11201047.499 22544300.150 10 0 61021 71100.00000 0 -1400976.567 -11048780.454 22964365.088 10 0 61021 72000.00000 0 1426053.430 -11099342.388 22939224.673 10 0 61021 72900.00000 0 4211671.215 -11351096.406 22469403.313 10 0 61021 73800.00000 0 6888247.436 -11790358.639 21564024.062 10 0 61021 74700.00000 0 9392349.087 -12391988.159 20240632.251 10 0 61021 75600.00000 0 11667125.421 -13120474.308 18524858.875 10 0 61021 76500.00000 0 13664423.551 -13931476.207 16449929.752 10 0 61021 77400.00000 0 15346547.097 -14773750.448 14056029.220 10 0 61021 78300.00000 0 16687585.852 -15591386.668 11389529.775 10 0 61021 79200.00000 0 17674261.894 -16326257.726 8502101.603 10 0 61021 80100.00000 0 18306257.435 -16920581.917 5449718.408 10 0 61021 81000.00000 0 18596011.147 -17319489.626 2291578.062 10 0 61021 81900.00000 0 18567991.744 -17473486.254 -911041.520 10 0 61021 82800.00000 0 18257479.494 -17340707.170 -4095969.294 10 0 61021 83700.00000 0 17708907.014 -16888868.879 -7201347.780 10 0 61021 84600.00000 0 16973829.316 -16096833.024 -10166835.938 10 0 61021 85500.00000 0 16108608.816 -14955715.943 -12934784.440 99